Location: Gollag?dem
(16.8053°N, 80.8024°E)
Time: 09:47:33
(UTC+00:00)

X-37B - Visible Passes

Search period start: 31 March 2023 00:00
Search period end: 10 April 2023 00:00
Orbit: 277 x 277 km, 45.0° (Epoch: 01 November)

Date Brightness Start Highest point End Pass type
(mag) Time Alt. Az. Time Alt. Az. Time Alt. Az.
31 Mar 2.0 13:46:10 10° N 13:47:30 17° NNE 13:47:30 17° NNE visible
01 Apr 0.0 13:46:15 10° NW 13:48:38 51° NE 13:48:49 49° ENE visible
02 Apr 1.0 13:46:57 10° WNW 13:49:17 40° SW 13:50:16 25° S visible
03 Apr 2.9 13:48:29 10° W 13:49:52 14° SW 13:51:16 10° SSW visible
09 Apr 2.8 23:37:56 10° S 23:39:29 15° SE 23:41:01 10° E visible
